AIQ231 ROAH-RCTP

Flight info

Callsign AIQ231
Flight time 1h 13m
Altitude 38000
Route ROAH/36R N0455F380 GANJU2 GANJU Y576 LILRA Y573 SEDKU R595 GRACE GRAC1A RCTP/05R
Aircraft A21N/M-VGDW/C

Departure

Time 2026-04-20 15:56
Airport Naha International Airport (ROAH)

Arrival

Time 2026-04-20 17:09
Airport Taiwan Taoyuan International Airport (RCTP)
Time Latitude Longitude Altitude Speed Heading
2026-04-20 15:36 26.21075 127.64957 27 ft 0 kts 88°
2026-04-20 15:43 26.21075 127.64949 27 ft 2 kts 88°
2026-04-20 15:44 26.21074 127.64932 27 ft 2 kts 88°
2026-04-20 15:44 26.21074 127.64914 27 ft 2 kts 95°
2026-04-20 15:44 26.21078 127.64898 27 ft 2 kts 119°
2026-04-20 15:44 26.21087 127.64884 27 ft 2 kts 139°
2026-04-20 15:45 26.21101 127.64875 27 ft 2 kts 161°
2026-04-20 15:45 26.21116 127.64872 27 ft 2 kts 179°
2026-04-20 15:45 26.21131 127.64872 27 ft 2 kts 179°
2026-04-20 15:45 26.21135 127.64871 27 ft 0 kts 179°
2026-04-20 15:47 26.21133 127.64872 27 ft 1 kts 179°
2026-04-20 15:47 26.21117 127.64872 27 ft 4 kts 180°
2026-04-20 15:48 26.21083 127.64871 27 ft 6 kts 181°
2026-04-20 15:48 26.21031 127.64871 27 ft 9 kts 181°
2026-04-20 15:48 26.20962 127.64870 27 ft 11 kts 181°
2026-04-20 15:48 26.20902 127.64821 27 ft 12 kts 250°
2026-04-20 15:49 26.20871 127.64735 27 ft 13 kts 197°
2026-04-20 15:49 26.20778 127.64746 27 ft 14 kts 178°
2026-04-20 15:49 26.20679 127.64750 27 ft 15 kts 178°
2026-04-20 15:49 26.20574 127.64756 28 ft 16 kts 177°
2026-04-20 15:50 26.20463 127.64761 27 ft 16 kts 177°
2026-04-20 15:50 26.20347 127.64766 27 ft 17 kts 178°
2026-04-20 15:50 26.20226 127.64771 27 ft 18 kts 178°
2026-04-20 15:50 26.20099 127.64776 27 ft 18 kts 176°
2026-04-20 15:51 26.19968 127.64783 27 ft 19 kts 178°
2026-04-20 15:51 26.19833 127.64789 27 ft 20 kts 178°
2026-04-20 15:51 26.19693 127.64795 27 ft 20 kts 178°
2026-04-20 15:51 26.19550 127.64802 27 ft 21 kts 177°
2026-04-20 15:52 26.19401 127.64810 28 ft 22 kts 177°
2026-04-20 15:52 26.19247 127.64817 28 ft 22 kts 178°
2026-04-20 15:52 26.19089 127.64824 28 ft 23 kts 176°
2026-04-20 15:53 26.18760 127.64840 28 ft 24 kts 177°
2026-04-20 15:53 26.18593 127.64848 28 ft 21 kts 177°
2026-04-20 15:53 26.18481 127.64853 28 ft 15 kts 177°
2026-04-20 15:53 26.18389 127.64857 28 ft 12 kts 178°
2026-04-20 15:54 26.18304 127.64861 28 ft 13 kts 179°
2026-04-20 15:54 26.18244 127.64795 28 ft 14 kts 268°
2026-04-20 15:54 26.18250 127.64685 26 ft 11 kts 298°
2026-04-20 15:54 26.18321 127.64652 27 ft 7 kts 358°
2026-04-20 15:55 26.18379 127.64650 27 ft 9 kts 357°
2026-04-20 15:55 26.18473 127.64646 27 ft 30 kts 358°
2026-04-20 15:55 26.18929 127.64624 30 ft 99 kts 357°
2026-04-20 15:55 26.19816 127.64582 26 ft 153 kts 357°
2026-04-20 15:56 26.20891 127.64519 573 ft 149 kts 356°
2026-04-20 15:56 26.21920 127.64435 1178 ft 150 kts 354°
2026-04-20 15:56 26.23005 127.64387 1583 ft 168 kts 358°
2026-04-20 15:56 26.24247 127.64358 2048 ft 190 kts 358°
2026-04-20 15:57 26.25648 127.64301 2559 ft 215 kts 352°
2026-04-20 15:57 26.27154 127.63727 3013 ft 242 kts 331°
2026-04-20 15:57 26.28634 127.62738 3778 ft 253 kts 329°
2026-04-20 15:57 26.30153 127.61702 4694 ft 258 kts 329°
2026-04-20 15:58 26.31705 127.60664 5667 ft 261 kts 329°
2026-04-20 15:58 26.33274 127.59619 6624 ft 263 kts 329°
2026-04-20 15:58 26.34865 127.58575 7517 ft 268 kts 329°
2026-04-20 15:58 26.36489 127.57514 8372 ft 273 kts 329°
2026-04-20 15:59 26.38070 127.56312 9183 ft 278 kts 319°
2026-04-20 15:59 26.39331 127.54664 9963 ft 283 kts 302°
2026-04-20 15:59 26.40102 127.52622 10466 ft 300 kts 284°
2026-04-20 15:59 26.40249 127.50212 10773 ft 324 kts 265°
2026-04-20 16:00 26.39599 127.47731 11097 ft 345 kts 244°
2026-04-20 16:00 26.38179 127.45537 11706 ft 354 kts 230°
2026-04-20 16:00 26.36513 127.43486 12476 ft 357 kts 229°
2026-04-20 16:00 26.34832 127.41426 13228 ft 360 kts 229°
2026-04-20 16:01 26.33065 127.39430 13961 ft 363 kts 225°
2026-04-20 16:01 26.31274 127.37478 14668 ft 365 kts 225°
2026-04-20 16:01 26.29458 127.35493 15366 ft 368 kts 225°
2026-04-20 16:01 26.27612 127.33476 16045 ft 371 kts 225°
2026-04-20 16:02 26.25767 127.31456 16703 ft 373 kts 225°
2026-04-20 16:02 26.23906 127.29423 17349 ft 376 kts 225°
2026-04-20 16:02 26.22032 127.27377 17988 ft 378 kts 225°
2026-04-20 16:02 26.20150 127.25318 18595 ft 381 kts 225°
2026-04-20 16:03 26.18248 127.23242 19184 ft 384 kts 225°
2026-04-20 16:03 26.16333 127.21152 19758 ft 387 kts 225°
2026-04-20 16:03 26.14404 127.19047 20320 ft 390 kts 225°
2026-04-20 16:03 26.12538 127.16851 20862 ft 392 kts 232°
2026-04-20 16:04 26.11487 127.15206 21236 ft 393 kts 237°
2026-04-20 16:04 26.09535 127.11756 21966 ft 396 kts 239°
2026-04-20 16:04 26.08093 127.09175 22514 ft 399 kts 239°
2026-04-20 16:04 26.07095 127.07400 22865 ft 400 kts 239°
2026-04-20 16:05 26.05614 127.04766 23379 ft 403 kts 239°
2026-04-20 16:05 26.03629 127.01247 24039 ft 406 kts 239°
2026-04-20 16:05 26.02121 126.98587 24516 ft 409 kts 239°
2026-04-20 16:05 26.01093 126.96778 24823 ft 410 kts 239°
2026-04-20 16:06 25.99587 126.94120 25266 ft 412 kts 239°
2026-04-20 16:06 25.98055 126.91424 25678 ft 415 kts 239°
2026-04-20 16:06 25.96501 126.88691 26080 ft 418 kts 239°
2026-04-20 16:06 25.94952 126.85957 26480 ft 420 kts 239°
2026-04-20 16:07 25.93385 126.83201 26888 ft 422 kts 239°
2026-04-20 16:07 25.91816 126.80445 27293 ft 423 kts 239°
2026-04-20 16:07 25.90239 126.77673 27673 ft 425 kts 239°
2026-04-20 16:07 25.88653 126.74895 28049 ft 426 kts 239°
2026-04-20 16:08 25.87083 126.72095 28403 ft 428 kts 241°
2026-04-20 16:08 25.85606 126.69226 28769 ft 429 kts 242°
2026-04-20 16:08 25.84129 126.66342 29140 ft 430 kts 242°
2026-04-20 16:08 25.82647 126.63448 29483 ft 431 kts 242°
2026-04-20 16:09 25.81156 126.60558 29807 ft 433 kts 242°
2026-04-20 16:09 25.79658 126.57650 30121 ft 434 kts 242°
2026-04-20 16:09 25.78166 126.54740 30431 ft 435 kts 242°
2026-04-20 16:09 25.76669 126.51823 30805 ft 434 kts 242°
2026-04-20 16:10 25.75174 126.48916 31190 ft 434 kts 242°
2026-04-20 16:10 25.73697 126.46044 31564 ft 433 kts 242°
2026-04-20 16:10 25.72201 126.43139 31927 ft 432 kts 242°
2026-04-20 16:10 25.70707 126.40241 32262 ft 432 kts 242°
2026-04-20 16:11 25.69211 126.37339 32600 ft 432 kts 242°
2026-04-20 16:11 25.67719 126.34455 32944 ft 431 kts 242°
2026-04-20 16:11 25.66231 126.31576 33276 ft 431 kts 243°
2026-04-20 16:11 25.64743 126.28695 33580 ft 430 kts 243°
2026-04-20 16:12 25.63255 126.25812 33876 ft 430 kts 243°
2026-04-20 16:12 25.61769 126.22940 34154 ft 430 kts 243°
2026-04-20 16:12 25.60279 126.20064 34430 ft 429 kts 243°
2026-04-20 16:12 25.58797 126.17203 34739 ft 428 kts 243°
2026-04-20 16:13 25.57321 126.14353 35023 ft 426 kts 243°
2026-04-20 16:13 25.55844 126.11513 35305 ft 425 kts 243°
2026-04-20 16:13 25.54373 126.08682 35571 ft 423 kts 243°
2026-04-20 16:13 25.52912 126.05862 35829 ft 422 kts 243°
2026-04-20 16:14 25.51449 126.03049 36066 ft 421 kts 243°
2026-04-20 16:14 25.49989 126.00240 36306 ft 420 kts 243°
2026-04-20 16:14 25.48533 125.97442 36530 ft 419 kts 243°
2026-04-20 16:14 25.47103 125.94689 36775 ft 417 kts 243°
2026-04-20 16:15 25.45655 125.91913 37043 ft 414 kts 243°
2026-04-20 16:15 25.44221 125.89164 37318 ft 411 kts 243°
2026-04-20 16:15 25.42794 125.86437 37582 ft 408 kts 243°
2026-04-20 16:15 25.41372 125.83733 37820 ft 405 kts 243°
2026-04-20 16:16 25.39960 125.81045 38016 ft 404 kts 243°
2026-04-20 16:16 25.38549 125.78352 38102 ft 403 kts 243°
2026-04-20 16:16 25.35749 125.73007 38092 ft 401 kts 243°
2026-04-20 16:17 25.32935 125.67682 38080 ft 400 kts 242°
2026-04-20 16:17 25.30109 125.62387 38079 ft 400 kts 242°
2026-04-20 16:18 25.27280 125.57096 38079 ft 400 kts 242°
2026-04-20 16:18 25.24451 125.51809 38079 ft 399 kts 242°
2026-04-20 16:19 25.21654 125.46566 38082 ft 399 kts 242°
2026-04-20 16:19 25.18855 125.41288 38056 ft 398 kts 242°
2026-04-20 16:20 25.16037 125.36024 38051 ft 398 kts 242°
2026-04-20 16:20 25.13213 125.30760 38051 ft 399 kts 242°
2026-04-20 16:21 25.10365 125.25505 38049 ft 398 kts 240°
2026-04-20 16:21 25.07118 125.20569 38051 ft 399 kts 236°
2026-04-20 16:22 25.03781 125.15676 38051 ft 399 kts 236°
2026-04-20 16:22 25.00439 125.10774 38051 ft 400 kts 236°
2026-04-20 16:23 24.96961 125.05993 38050 ft 399 kts 234°
2026-04-20 16:23 24.93441 125.01250 38050 ft 399 kts 234°
2026-04-20 16:24 24.89950 124.96538 38050 ft 399 kts 234°
2026-04-20 16:24 24.86465 124.91778 38048 ft 397 kts 237°
2026-04-20 16:25 24.84055 124.86370 38050 ft 392 kts 256°
2026-04-20 16:25 24.83675 124.80417 38054 ft 394 kts 274°
2026-04-20 16:26 24.84423 124.74440 38053 ft 395 kts 276°
2026-04-20 16:26 24.85179 124.68452 38051 ft 394 kts 275°
2026-04-20 16:27 24.85911 124.62464 38051 ft 395 kts 275°
2026-04-20 16:27 24.86627 124.56500 38051 ft 395 kts 275°
2026-04-20 16:28 24.87351 124.50501 38050 ft 395 kts 275°
2026-04-20 16:28 24.88055 124.44480 38051 ft 395 kts 275°
2026-04-20 16:29 24.88767 124.38482 38050 ft 395 kts 275°
2026-04-20 16:29 24.89481 124.32463 38050 ft 395 kts 275°
2026-04-20 16:30 24.90193 124.26455 38049 ft 396 kts 275°
2026-04-20 16:30 24.90920 124.20443 38050 ft 395 kts 275°
2026-04-20 16:31 24.91636 124.14435 38051 ft 395 kts 275°
2026-04-20 16:31 24.92332 124.08429 38049 ft 396 kts 275°
2026-04-20 16:32 24.93028 124.02447 38050 ft 395 kts 275°
2026-04-20 16:32 24.93710 123.96439 38050 ft 396 kts 274°
2026-04-20 16:33 24.94347 123.90407 38050 ft 396 kts 274°
2026-04-20 16:33 24.94984 123.84374 38051 ft 397 kts 274°
2026-04-20 16:34 24.95618 123.78333 38050 ft 397 kts 274°
2026-04-20 16:34 24.96256 123.72294 38050 ft 397 kts 274°
2026-04-20 16:35 24.96883 123.66247 38050 ft 397 kts 274°
2026-04-20 16:35 24.97504 123.60202 38051 ft 397 kts 274°
2026-04-20 16:36 24.98112 123.54154 38049 ft 397 kts 274°
2026-04-20 16:36 24.98749 123.48100 38050 ft 397 kts 275°
2026-04-20 16:37 24.99390 123.42086 38048 ft 397 kts 274°
2026-04-20 16:37 25.00004 123.36026 38051 ft 397 kts 274°
2026-04-20 16:38 25.00626 123.29970 38050 ft 397 kts 274°
2026-04-20 16:38 25.01246 123.23904 38049 ft 398 kts 274°
2026-04-20 16:39 25.01858 123.17833 38051 ft 398 kts 274°
2026-04-20 16:39 25.02475 123.11760 38051 ft 398 kts 274°
2026-04-20 16:40 25.03089 123.05685 38051 ft 398 kts 274°
2026-04-20 16:40 25.03685 122.99648 38051 ft 399 kts 274°
2026-04-20 16:41 25.04297 122.93588 37800 ft 394 kts 274°
2026-04-20 16:41 25.04593 122.90598 37405 ft 391 kts 274°
2026-04-20 16:41 25.04889 122.87614 36886 ft 390 kts 274°
2026-04-20 16:42 25.05188 122.84639 36341 ft 390 kts 274°
2026-04-20 16:42 25.05479 122.81666 35789 ft 389 kts 274°
2026-04-20 16:42 25.05755 122.78702 35255 ft 388 kts 274°
2026-04-20 16:42 25.06032 122.75740 34700 ft 387 kts 274°
2026-04-20 16:43 25.06313 122.72784 34108 ft 387 kts 274°
2026-04-20 16:43 25.06596 122.69867 33550 ft 388 kts 274°
2026-04-20 16:43 25.06889 122.66908 33040 ft 388 kts 274°
2026-04-20 16:43 25.07181 122.63954 32568 ft 386 kts 274°
2026-04-20 16:44 25.07461 122.61028 32076 ft 383 kts 274°
2026-04-20 16:44 25.07742 122.58115 31592 ft 380 kts 274°
2026-04-20 16:44 25.08029 122.55236 31118 ft 377 kts 274°
2026-04-20 16:44 25.08314 122.52364 30646 ft 375 kts 274°
2026-04-20 16:45 25.08598 122.49515 30201 ft 372 kts 274°
2026-04-20 16:45 25.08863 122.46690 29749 ft 369 kts 274°
2026-04-20 16:45 25.09125 122.43880 29261 ft 367 kts 274°
2026-04-20 16:45 25.09392 122.41080 28776 ft 366 kts 274°
2026-04-20 16:46 25.09656 122.38324 28330 ft 365 kts 274°
2026-04-20 16:46 25.09921 122.35549 27887 ft 363 kts 274°
2026-04-20 16:46 25.10190 122.32779 27436 ft 362 kts 274°
2026-04-20 16:46 25.10556 122.30039 26968 ft 362 kts 280°
2026-04-20 16:47 25.11380 122.27404 26493 ft 365 kts 292°
2026-04-20 16:47 25.12624 122.24946 26018 ft 366 kts 297°
2026-04-20 16:47 25.13956 122.22560 25564 ft 365 kts 298°
2026-04-20 16:47 25.15272 122.20173 25112 ft 363 kts 297°
2026-04-20 16:48 25.16569 122.17786 24630 ft 361 kts 297°
2026-04-20 16:48 25.17843 122.15434 24146 ft 360 kts 297°
2026-04-20 16:48 25.19122 122.13066 23676 ft 358 kts 297°
2026-04-20 16:48 25.20389 122.10701 23212 ft 356 kts 297°
2026-04-20 16:49 25.21651 122.08349 22751 ft 355 kts 297°
2026-04-20 16:49 25.22902 122.06012 22291 ft 353 kts 297°
2026-04-20 16:49 25.24148 122.03682 21817 ft 351 kts 297°
2026-04-20 16:49 25.25385 122.01373 21347 ft 348 kts 297°
2026-04-20 16:50 25.26614 121.99060 20880 ft 346 kts 297°
2026-04-20 16:50 25.27420 121.97550 20587 ft 345 kts 297°
2026-04-20 16:50 25.28632 121.95272 20154 ft 343 kts 296°
2026-04-20 16:50 25.29839 121.93001 19730 ft 342 kts 297°
2026-04-20 16:51 25.31045 121.90748 19314 ft 340 kts 297°
2026-04-20 16:51 25.32239 121.88506 18910 ft 338 kts 297°
2026-04-20 16:51 25.33430 121.86270 18521 ft 337 kts 296°
2026-04-20 16:51 25.34617 121.84046 18137 ft 335 kts 297°
2026-04-20 16:52 25.35795 121.81823 17752 ft 334 kts 297°
2026-04-20 16:52 25.36972 121.79617 17360 ft 332 kts 297°
2026-04-20 16:52 25.38137 121.77427 16965 ft 330 kts 297°
2026-04-20 16:52 25.39297 121.75248 16593 ft 328 kts 297°
2026-04-20 16:53 25.40443 121.73087 16224 ft 326 kts 297°
2026-04-20 16:53 25.41597 121.70913 15856 ft 327 kts 297°
2026-04-20 16:53 25.42756 121.68742 15480 ft 327 kts 297°
2026-04-20 16:53 25.43912 121.66572 15111 ft 327 kts 297°
2026-04-20 16:54 25.45044 121.64435 14794 ft 325 kts 297°
2026-04-20 16:54 25.46182 121.62276 14440 ft 325 kts 297°
2026-04-20 16:54 25.47283 121.60091 14065 ft 323 kts 292°
2026-04-20 16:54 25.47801 121.57712 13690 ft 317 kts 269°
2026-04-20 16:55 25.47355 121.55365 13328 ft 313 kts 243°
2026-04-20 16:55 25.46056 121.53455 12992 ft 310 kts 226°
2026-04-20 16:55 25.44546 121.51760 12653 ft 309 kts 226°
2026-04-20 16:55 25.43057 121.50039 12291 ft 309 kts 227°
2026-04-20 16:56 25.41610 121.48289 11922 ft 308 kts 228°
2026-04-20 16:56 25.40184 121.46520 11556 ft 308 kts 229°
2026-04-20 16:56 25.38770 121.44745 11180 ft 308 kts 229°
2026-04-20 16:56 25.37355 121.42954 10833 ft 308 kts 229°
2026-04-20 16:57 25.35953 121.41173 10566 ft 305 kts 229°
2026-04-20 16:57 25.34585 121.39432 10378 ft 295 kts 229°
2026-04-20 16:57 25.33261 121.37744 10195 ft 287 kts 229°
2026-04-20 16:57 25.31987 121.36117 10024 ft 281 kts 229°
2026-04-20 16:58 25.30716 121.34494 9768 ft 278 kts 229°
2026-04-20 16:58 25.29449 121.32875 9474 ft 277 kts 229°
2026-04-20 16:58 25.28186 121.31263 9152 ft 278 kts 229°
2026-04-20 16:58 25.26922 121.29651 8838 ft 278 kts 229°
2026-04-20 16:59 25.25657 121.28039 8526 ft 277 kts 229°
2026-04-20 16:59 25.24394 121.26430 8220 ft 277 kts 229°
2026-04-20 16:59 25.23132 121.24824 7915 ft 277 kts 229°
2026-04-20 16:59 25.21871 121.23219 7623 ft 276 kts 229°
2026-04-20 17:00 25.19355 121.20020 7024 ft 275 kts 229°
2026-04-20 17:00 25.18099 121.18423 6704 ft 276 kts 229°
2026-04-20 17:00 25.16837 121.16819 6388 ft 277 kts 229°
2026-04-20 17:01 25.15575 121.15216 6065 ft 277 kts 229°
2026-04-20 17:01 25.14309 121.13606 5751 ft 277 kts 229°
2026-04-20 17:01 25.13061 121.12021 5443 ft 277 kts 229°
2026-04-20 17:01 25.11779 121.10394 5138 ft 277 kts 228°
2026-04-20 17:02 25.10517 121.08788 4829 ft 277 kts 228°
2026-04-20 17:02 25.09253 121.07183 4500 ft 277 kts 228°
2026-04-20 17:02 25.08005 121.05598 4173 ft 277 kts 228°
2026-04-20 17:02 25.06738 121.03992 3844 ft 276 kts 228°
2026-04-20 17:03 25.05483 121.02411 3522 ft 272 kts 226°
2026-04-20 17:03 25.04009 121.01169 3297 ft 260 kts 203°
2026-04-20 17:03 25.02351 121.00701 3337 ft 236 kts 175°
2026-04-20 17:03 25.00892 121.01199 3400 ft 208 kts 144°
2026-04-20 17:04 24.99811 121.02222 3423 ft 204 kts 134°
2026-04-20 17:04 24.98806 121.03324 3414 ft 204 kts 134°
2026-04-20 17:04 24.97792 121.04421 3401 ft 204 kts 135°
2026-04-20 17:04 24.96826 121.05451 3467 ft 188 kts 135°
2026-04-20 17:05 24.95902 121.06432 3398 ft 187 kts 134°
2026-04-20 17:05 24.95163 121.07588 3298 ft 186 kts 105°
2026-04-20 17:05 24.95310 121.08967 3133 ft 187 kts 62°
2026-04-20 17:05 24.96147 121.10053 2995 ft 187 kts 46°
2026-04-20 17:06 24.97087 121.11042 2772 ft 186 kts 46°
2026-04-20 17:06 24.97977 121.12066 2517 ft 184 kts 51°
2026-04-20 17:06 24.98815 121.13132 2293 ft 183 kts 51°
2026-04-20 17:06 24.99639 121.14177 2042 ft 178 kts 51°
2026-04-20 17:07 25.00433 121.15182 1801 ft 169 kts 51°
2026-04-20 17:07 25.01177 121.16123 1600 ft 156 kts 51°
2026-04-20 17:07 25.01862 121.16990 1385 ft 146 kts 51°
2026-04-20 17:07 25.02527 121.17832 1199 ft 145 kts 51°
2026-04-20 17:08 25.03181 121.18661 1012 ft 145 kts 51°
2026-04-20 17:08 25.03851 121.19510 819 ft 145 kts 51°
2026-04-20 17:08 25.04504 121.20338 628 ft 145 kts 51°
2026-04-20 17:08 25.05166 121.21177 436 ft 145 kts 51°
2026-04-20 17:09 25.05822 121.22014 239 ft 144 kts 51°
2026-04-20 17:09 25.06477 121.22848 115 ft 139 kts 50°
2026-04-20 17:09 25.07037 121.23565 101 ft 97 kts 49°
2026-04-20 17:09 25.07343 121.23951 101 ft 39 kts 49°
2026-04-20 17:10 25.07512 121.24144 100 ft 30 kts 28°
2026-04-20 17:10 25.07669 121.24218 102 ft 16 kts 19°
2026-04-20 17:10 25.07756 121.24252 104 ft 14 kts 19°
2026-04-20 17:10 25.07855 121.24300 105 ft 17 kts 33°
2026-04-20 17:11 25.07943 121.24392 105 ft 17 kts 49°
2026-04-20 17:11 25.08014 121.24470 104 ft 12 kts 15°
2026-04-20 17:11 25.08092 121.24426 104 ft 14 kts 319°
2026-04-20 17:11 25.08173 121.24348 106 ft 16 kts 319°
2026-04-20 17:12 25.08261 121.24265 106 ft 17 kts 319°
2026-04-20 17:12 25.08356 121.24176 106 ft 18 kts 319°
2026-04-20 17:12 25.08454 121.24083 106 ft 19 kts 320°
2026-04-20 17:12 25.08556 121.23985 106 ft 20 kts 319°
2026-04-20 17:13 25.08644 121.23902 106 ft 11 kts 319°
2026-04-20 17:13 25.08651 121.23823 106 ft 12 kts 231°
2026-04-20 17:13 25.08593 121.23748 106 ft 13 kts 228°
2026-04-20 17:13 25.08530 121.23668 106 ft 11 kts 230°
2026-04-20 17:14 25.08486 121.23651 106 ft 8 kts 155°
2026-04-20 17:14 25.08439 121.23692 106 ft 9 kts 138°
2026-04-20 17:14 25.08402 121.23727 105 ft 2 kts 139°
2026-04-20 17:14 25.08398 121.23731 106 ft 0 kts 139°